Probability
0 0 1 2 3 4 5 5 4 3 1 2 3 2 2 2 2 3 2 1 0 0 0 0 0 0 0 0 0 0 0 0 0 0 0 0 0 0
0 0 1 2 3 3 4 5 5 3 2 2 2 2 1 1 2 3 2 1 0 0 0 0 0 0 0 0 0 0 0 0 0 0 0 0 0 0
0 0 1 2 3 3 3 4 4 4 3 2 3 2 1 1 2 3 3 1 0 0 0 0 0 0 0 0 0 0 0 0 0 0 0 0 0 0
0 0 0 1 3 3 3 3 4 4 2 2 2 2 1 1 2 3 3 2 1 0 0 0 0 0 0 0 0 0 0 0 0 0 0 0 0 0
0 0 0 1 2 3 3 3 2 2 1 1 2 1 0 1 2 3 3 2 1 0 0 0 0 0 0 0 0 0 0 0 0 0 0 0 0 0
0 0 0 1 2 2 2 1 1 0 0 1 1 1 0 1 2 2 1 1 0 0 0 0 0 0 0 0 0 0 0 0 0 0 0 0 0 0
0 0 0 0 1 1 1 0 0 0 0 0 0 0 0 0 1 1 1 0 0 0 0 0 0 0 0 0 0 0 0 0 0 0 0 0 0 0
0 0 0 0 0 0 0 0 0 0 0 0 0 0 0 0 0 0 0 0 0 0 0 0 0 0 0 0 0 0 0 0 0 0 0 0 0 0
0 0 0 0 0 0 0 0 0 0 0 0 0 0 0 0 0 0 0 0 0 0 0 0 0 0 0 0 0 0 0 0 0 0 0 0 0 0
0 0 0 0 0 0 0 0 0 0 0 0 0 0 0 0 0 0 0 0 0 0 0 0 0 0 0 0 0 0 0 0 0 0 0 0 0 0
0 0 0 0 0 0 0 0 0 0 0 0 0 0 0 0 0 0 0 0 0 0 0 0 0 0 0 0 0 0 0 0 0 0 0 0 0 0
0 0 0 0 0 0 0 0 0 0 0 0 0 0 0 0 0 0 0 0 0 0 0 0 0 0 0 0 0 0 0 0 0 0 0 0 0 0
0 0 0 0 0 0 0 0 0 0 0 0 0 0 0 0 0 0 0 0 0 0 0 0 0 0 0 0 0 0 0 0 0 0 0 0 0 0
0 0 0 0 0 0 0 0 0 0 0 0 0 0 0 0 0 0 0 0 0 0 0 0 0 0 0 0 0 0 0 0 0 0 0 0 0 0
0 0 0 0 0 0 0 0 0 0 0 0 0 0 0 0 0 0 0 0 0 0 0 0 0 0 0 0 0 0 0 0 0 0 0 0 0 0
0 0 0 0 0 0 0 0 0 0 0 0 0 0 0 0 0 0 0 0 0 0 0 1 1 1 0 0 0 0 0 0 0 0 0 0 0 0
0 0 0 0 0 0 0 0 0 0 0 0 0 0 0 0 0 0 0 0 0 0 0 1 2 1 0 0 0 0 0 0 0 0 1 0 0 0
0 0 0 0 0 0 0 0 0 0 0 0 0 0 0 0 0 0 0 0 0 0 0 0 1 1 0 0 0 0 0 0 0 0 0 0 0 0
0 0 0 0 0 0 0 0 0 0 0 0 0 0 0 0 0 0 0 0 0 0 0 0 0 0 0 0 0 0 0 0 0 0 0 0 0 0
0 0 0 0 0 0 0 0 0 0 0 0 0 0 0 0 0 0 0 0 0 0 0 0 0 0 0 0 0 0 0 0 0 0 0 0 0 0
0 0 0 0 0 0 0 0 0 0 0 0 0 0 0 0 0 0 0 0 0 0 0 0 0 0 0 0 0 0 0 0 0 0 0 0 0 0
0 0 0 0 0 0 0 0 0 0 0 0 0 0 0 0 0 0 0 0 0 0 0 0 0 0 0 0 0 0 0 0 0 0 0 0 0 0
0 0 0 0 0 0 0 0 0 0 0 0 0 0 0 0 0 0 0 0 0 0 0 0 0 0 0 0 0 0 0 0 0 0 0 0 0 0
Wind_Speed
3 3 3 2 2 2 3 3 3 3 2 1 1 1 1 1 1 2 0 3 2 2 2 2 2 2 2 2 2 1 1 1 2 3 3 4 5 6
3 3 3 2 1 2 3 3 3 3 2 1 1 1 1 2 0 2 0 3 2 1 1 1 1 1 1 1 1 1 0 1 2 2 3 4 5 5
3 3 3 3 2 1 2 2 2 2 2 1 1 1 2 3 1 2 1 3 3 4 3 2 1 1 1 1 1 1 1 0 1 1 2 3 4 5
4 3 2 2 2 2 1 2 1 2 2 2 2 2 2 2 1 2 2 2 1 5 4 3 2 2 1 1 0 1 1 0 0 1 1 2 3 4
4 4 3 2 2 2 2 1 1 2 2 2 2 1 2 1 2 2 2 1 1 4 6 5 4 4 3 2 2 1 1 1 1 1 2 2 3 3
4 4 4 3 2 2 1 1 2 2 2 2 2 2 1 2 2 2 2 2 1 2 2 3 4 5 5 4 3 3 2 2 2 2 2 2 2 2
3 3 3 3 4 3 2 2 2 2 1 1 2 2 1 1 2 2 2 2 2 1 1 2 3 3 5 6 6 4 3 3 3 3 3 3 3 3
3 3 1 0 1 0 2 4 4 3 2 1 0 1 1 1 1 2 1 1 1 2 1 1 1 1 2 2 5 5 4 3 3 3 4 4 4 4
3 3 2 2 2 1 1 3 3 3 4 4 2 1 1 1 2 2 1 1 1 0 1 1 1 1 2 3 7 5 5 5 5 5 5 5 6 6
3 3 3 3 3 4 3 2 1 1 2 3 3 3 2 1 2 2 2 2 3 3 2 2 1 1 1 2 7 7 6 6 6 6 6 6 6 7
3 3 3 2 3 5 4 3 2 1 2 1 2 2 3 2 3 3 3 3 2 1 2 2 1 1 2 2 5 9 8 8 7 7 7 7 7 8
2 1 1 2 3 4 5 3 2 1 1 1 2 3 4 4 4 4 3 3 2 1 1 2 2 2 2 2 2 4 6 8 10 9 9 8 8 7
3 2 2 1 3 4 6 5 3 3 3 2 2 2 2 2 3 3 2 3 3 1 0 2 2 3 3 2 2 3 3 3 5 7 9 11 10 8
4 3 2 2 4 5 5 3 3 5 3 2 1 1 0 0 1 1 1 2 3 3 3 4 4 4 4 4 3 3 3 4 4 4 4 7 10 11
4 4 5 6 6 6 6 5 5 4 2 2 2 1 1 0 1 1 3 3 4 5 4 5 6 5 6 5 4 4 4 4 4 4 4 5 5 5
4 3 7 8 7 4 3 5 4 2 2 2 2 2 1 2 3 2 2 3 4 4 5 6 6 6 6 6 5 5 5 5 4 4 5 6 6 6
6 5 4 3 3 2 2 2 2 3 3 3 3 3 3 3 3 3 3 4 4 4 4 4 6 6 7 7 6 6 5 5 5 4 5 7 6 6
6 5 4 4 3 3 3 2 3 3 3 3 3 3 3 4 4 3 4 5 5 5 5 4 4 5 6 6 7 7 6 6 5 5 7 7 7 6
5 5 5 4 4 4 4 3 3 2 3 4 4 4 4 4 5 5 5 5 5 5 5 5 5 6 8 7 5 8 7 6 6 6 6 7 8 6
6 5 5 4 4 4 4 4 3 3 4 4 4 4 5 5 5 5 5 6 6 6 6 6 6 6 7 7 6 5 9 8 7 7 7 7 7 7
5 5 5 5 5 5 5 4 5 5 5 5 5 5 6 6 6 7 6 6 7 7 7 6 4 5 6 7 8 7 6 9 8 7 8 8 8 8
6 5 5 6 6 6 6 6 6 5 6 6 6 6 6 7 7 8 8 7 7 7 8 6 4 6 7 8 9 8 7 6 9 12 12 11 8 8
5 6 6 6 6 6 6 7 7 6 6 7 7 7 7 7 7 8 8 8 8 8 8 7 6 6 7 8 9 8 9 9 7 8 9 13 16 17
Wind_Direction
318 307 290 287 271 264 243 235 247 257 257 233 246 248 302 344 344 292 347 97 95 75 64 55 47 54 59 58 59 70 157 199 207 204 203 204 209 213
325 327 309 290 272 258 252 249 252 259 265 235 254 242 307 288 282 290 316 140 149 165 153 119 88 65 53 53 53 49 42 213 206 202 206 210 214 210
325 319 317 306 281 259 257 263 259 259 246 253 272 229 255 265 253 277 260 242 159 166 174 167 159 147 117 62 37 22 25 27 191 196 207 206 204 209
333 331 328 317 301 295 282 283 289 275 248 238 251 239 242 232 240 261 260 248 167 138 162 178 188 188 187 174 109 330 319 310 225 226 227 214 213 207
340 340 338 337 325 339 308 281 258 248 243 230 232 236 233 224 231 231 218 241 229 151 169 183 189 195 201 204 209 220 228 222 228 236 242 231 219 210
342 339 339 342 348 334 314 294 280 254 225 221 206 214 199 200 224 214 204 199 212 181 152 153 167 190 201 202 197 196 202 205 212 227 228 220 213 211
343 343 357 3 2 340 330 321 292 271 233 211 199 212 183 206 230 231 213 179 170 214 189 178 179 194 183 191 192 190 200 208 219 229 232 226 222 225
334 338 348 44 54 318 328 328 327 309 303 286 227 200 211 229 260 248 219 194 189 163 231 224 210 210 199 178 141 161 192 210 221 229 231 231 234 237
328 325 333 22 317 349 219 236 264 300 309 305 311 307 253 242 266 252 230 267 301 104 240 230 209 219 213 134 146 173 200 217 225 230 232 233 237 240
314 322 331 340 10 339 299 282 268 254 272 273 306 301 313 298 262 255 253 236 228 218 226 263 240 225 222 160 162 188 209 224 230 234 237 240 243 245
319 328 329 336 18 331 296 292 290 231 176 212 324 320 333 301 281 255 236 233 233 183 180 256 273 275 244 214 172 187 206 219 227 232 235 239 245 249
322 311 93 324 336 315 286 286 291 326 330 176 204 215 223 208 215 240 257 260 258 242 139 251 263 268 263 231 205 192 207 213 220 227 231 235 240 248
330 331 43 114 292 291 285 285 291 298 283 265 232 209 195 196 199 205 243 276 284 286 193 248 270 279 282 268 248 236 240 238 221 217 218 223 224 233
309 320 10 354 300 286 276 285 274 265 255 260 269 273 267 183 159 196 239 278 283 273 268 272 273 274 276 272 266 252 248 254 258 257 247 207 214 221
304 329 306 285 279 256 228 236 245 241 242 254 265 279 290 301 258 216 215 223 230 232 235 247 260 268 272 277 281 279 273 261 256 259 259 257 255 244
273 266 240 247 246 257 238 216 227 248 272 273 274 265 246 227 231 238 243 239 245 235 216 225 240 258 265 270 273 272 271 273 269 267 273 270 263 259
323 289 278 269 253 238 236 235 233 218 220 243 255 246 241 242 245 235 243 257 258 258 247 224 220 227 246 265 272 274 276 274 273 277 271 273 270 270
292 280 286 288 295 299 289 258 237 242 250 249 252 254 256 260 262 257 250 251 256 259 258 253 250 246 241 231 233 261 269 273 276 270 269 274 277 278
255 270 276 282 289 288 284 279 271 257 264 264 261 259 255 256 260 262 259 259 260 263 264 260 256 261 271 271 234 221 256 273 276 275 273 275 278 282
246 266 275 276 276 276 276 278 275 265 253 255 256 257 260 262 265 266 264 265 269 269 267 261 256 259 271 287 290 258 223 251 267 275 280 281 278 268
271 271 271 272 274 275 275 273 270 269 269 266 261 260 262 263 263 264 265 259 263 268 268 266 264 251 267 269 269 265 247 216 232 255 273 278 280 279
282 282 282 282 279 277 273 268 261 256 256 256 257 258 260 263 264 265 268 267 264 267 271 270 252 248 257 262 268 272 270 255 230 229 240 251 270 282
281 282 280 278 273 269 269 271 271 268 265 266 266 264 263 264 266 266 266 269 272 271 272 273 269 263 264 266 269 272 273 271 265 254 240 221 225 238